DECAYED

STARLINK-5390, 54872 (Decayed)

Orbit data source: Space-Track

STARLINK-5390, 54872 was a payload satellite owned by SpaceX/Seattle (US) in LEO that was launched on Wed, 28 Dec 2022 UTC via an FALCON 9 launch vehicle from the Air Force Eastern Test Range (AFETR). Payload-class satellites include a variety of spacecraft equipped with specific instruments for various scientific and technological missions. These include communications satellites like Starlink; space stations such as the ISS; scientific satellites like the Hubble; Earth observation satellites from companies like Planet Labs, Umbra, and HawkEye 360; GPS; miniature CubeSats for education and research; and military/defense satellites.

Not visible in the next 10 days
Identifier
54872, 2022-177BE
Orbit
Decayed
Country
Flag of USUS
Related business
Manufacturer
SpaceX/Seattle
Mission
Decayed Commercial Communications
Bus & Motor
STARLINK, Unknown motor
Mass
305 kg wet, ~290 kg dry
Launch date (UTC)
2022-12-28 (3 years ago)
Launch vehicle
FALCON 9
Launch site
Air Force Eastern Test Range (AFETR)
Object type
Payload
Rocket body
Debris
Shape & HBR
Box + 1 Pan, 10.1 m
Radar Cross Section
13.562 m², Large (>1 m²)

Expand to show TLE details & history
Last TLE update: 4 months ago

TLE from 4 months ago
0 STARLINK-5390
1 54872U 22177BE  26037.87245633  .06833405  93204-5  61259-3 0  9999
2 54872  42.9855 251.7061 0007861 299.2644  60.7462 16.37929600172885
Epoch: 2026-02-06T20:56Z
TLE epoch observation values (Epoch: 2026-02-06T20:56:20.226Z)
Latitude
-0.00002°
Longitude
160.61771°
Altitude
168.566 km
Speed
7.809 km/s
True Right ascension
16h 46m 49s
True Declination
0° 00' 00"
Sunlit
Object was in daylight at epoch
Visualization orbit readout
Latitude
Unknown
Longitude
Unknown
Altitude
Unknown
Speed
Unknown
Apparent Right ascension
Unknown
Apparent Declination
Unknown
Sunlit
N/A
Visualization observer readout
Local Sidereal Time
21:23:42
Azimuth
Unknown
Elevation
Unknown
Doppler factor
Unknown
Orbital elements
Apogee altitude
178.506 km
Perigee altitude
168.206 km
Semi-major axis
6,551.493 km
Eccentricity
0.00079
Inclination
42.9855°
RAAN
251.7061°
Arg. of periapsis
299.2644°
True anomaly
60.82483°
Mean anomaly
60.7462°
Eccentric anomaly
60.78551°
Mean motion
4.09292 °/min
Orbital period
87.96 mins
BSTAR
0.00061259
Loading maneuver chart data...
Computing Atmospheric mass density...
Loading historical data...
Loading historical data...
Loading historical data...
Loading historical data...
Loading historical data...
Loading historical data...
Loading historical data...

Documentation

Showing up to 5 results
|